Content
SEND FEEDBACK

Daily
Averages
Monthly
Summary
United States of America

FOREST LAKE, MINNESOTA


Home > North America > United States > Minnesota
Elevation: 905 feet     Latitude: 45 16N     Longitude: 092 55W

WEATHER
 
SELECT A DAY
Number of Records: 403,967;   Date Range: 5/11/98 - 10/19/14
 
SHARE

PRINT THIS DATA

[ ← Previous Day ]
WEATHER ALMANAC - FEBRUARY 13, 2013
[ Next Day → ]
[ °C ]   °F
Weather ElementAverageHighLow
Temperature28.1 °F35.6 °F (1:55 pm)17.6 °F (2:55 am)
Dewpoint24.7 °F32 °F (7:15 pm)15.8 °F (2:55 am)
Humidity87.6 %100 % (7:15 pm)70 % (2:15 pm)
Barometer29.69 in29.80 in (12:35 am)29.59 in (9:55 pm)
Wind Speed3.3 mph9.2 mph (12:15 pm)
Weather ElementAverage
Visibility8.1 mi
Wind DirectionESE (125.9 °)

Weather ElementTotal
Precipitation0.04 in
Heating Degree Days38.4 (Base 65)
Averaged from 70 records on February 13, 2013
WEATHER CONDITIONS BREAKOUT
WIND DIRECTION BREAKOUT
WEATHER BY HOUR - FEBRUARY 13, 2013
[ °C ]   °F
Local TimeTemperatureDewpointHumidityBarometerVisibilityWind DirectionWind SpeedGust SpeedPrecipitationEventsConditions
12:35 AM24.8 °F19.4 °F80 %29.80 in10.0 miWSW (240°)3.5 mphOvercast
12:55 AM24.8 °F19.4 °F80 %29.79 in10.0 miWSW (250°)3.5 mphOvercast
1:15 AM23.0 °F19.4 °F86 %29.79 in10.0 miWSW (250°)3.5 mphOvercast
1:35 AM23.0 °F19.4 °F86 %29.79 in10.0 miWSW (250°)4.6 mphScattered Clouds
1:55 AM21.2 °F19.4 °F93 %29.79 in10.0 miSW (230°)3.5 mphScattered Clouds
2:15 AM21.2 °F19.4 °F93 %29.78 in10.0 miSSW (210°)3.5 mphOvercast
2:35 AM21.2 °F17.6 °F86 %29.78 in10.0 miSW (230°)4.6 mphScattered Clouds
2:55 AM17.6 °F15.8 °F93 %29.78 in10.0 miSW (230°)4.6 mphScattered Clouds
3:15 AM19.4 °F17.6 °F93 %29.77 in10.0 miSW (230°)3.5 mphOvercast
3:35 AM21.2 °F19.4 °F93 %29.77 in10.0 miCalmOvercast
3:55 AM21.2 °F17.6 °F86 %29.77 in10.0 miWSW (250°)3.5 mphOvercast
4:15 AM21.2 °F19.4 °F93 %29.76 in10.0 miCalmOvercast
4:35 AM21.2 °F17.6 °F86 %29.76 in10.0 miWSW (250°)4.6 mphOvercast
4:55 AM21.2 °F19.4 °F93 %29.76 in10.0 miCalmOvercast
5:15 AM21.2 °F17.6 °F86 %29.76 in10.0 miCalmOvercast
5:35 AM21.2 °F19.4 °F93 %29.76 in10.0 miCalmOvercast
5:55 AM21.2 °F19.4 °F93 %29.76 in10.0 miWSW (250°)4.6 mphOvercast
6:15 AM21.2 °F19.4 °F93 %29.75 in10.0 miCalmOvercast
6:35 AM23.0 °F19.4 °F86 %29.74 in10.0 miCalmOvercast
6:55 AM23.0 °F19.4 °F86 %29.74 in10.0 miCalmOvercast
7:15 AM21.2 °F19.4 °F93 %29.73 in10.0 miCalmMostly Cloudy
7:35 AM19.4 °F17.6 °F93 %29.74 in10.0 miCalmMostly Cloudy
7:55 AM21.2 °F19.4 °F93 %29.74 in7.0 miCalmOvercast
8:15 AM23.0 °F19.4 °F86 %29.74 in10.0 miCalmOvercast
8:35 AM23.0 °F21.2 °F93 %29.73 in10.0 miSW (220°)3.5 mphMostly Cloudy
8:55 AM24.8 °F21.2 °F86 %29.72 in10.0 miSSW (210°)5.8 mphMostly Cloudy
9:15 AM24.8 °F21.2 °F86 %29.72 in10.0 miCalmOvercast
9:35 AM26.6 °F21.2 °F80 %29.72 in10.0 miSSW (210°)5.8 mphOvercast
9:55 AM26.6 °F21.2 °F80 %29.72 in10.0 miSW (220°)5.8 mphMostly Cloudy
10:15 AM26.6 °F21.2 °F80 %29.72 in10.0 miSouth (190°)3.5 mphOvercast
10:35 AM28.4 °F23.0 °F80 %29.72 in10.0 miCalmOvercast
10:55 AM28.4 °F23.0 °F80 %29.72 in10.0 miSSW (210°)4.6 mphMostly Cloudy
11:15 AM30.2 °F23.0 °F75 %29.72 in10.0 miSW (220°)4.6 mphMostly Cloudy
11:35 AM30.2 °F23.0 °F75 %29.72 in10.0 miSW (220°)5.8 mphOvercast
11:55 AM32.0 °F24.8 °F75 %29.71 in10.0 miSW (220°)8.1 mphOvercast
12:15 PM32.0 °F24.8 °F75 %29.71 in10.0 miSW (230°)9.2 mphOvercast
12:35 PM32.0 °F24.8 °F75 %29.69 in10.0 miSSW (210°)5.8 mphOvercast
12:55 PM32.0 °F26.6 °F80 %29.68 in10.0 miSW (230°)4.6 mphOvercast
1:15 PM32.0 °F26.6 °F80 %29.68 in10.0 miCalmMostly Cloudy
1:35 PM33.8 °F26.6 °F75 %29.67 in10.0 miCalm0.02 inClear
1:55 PM35.6 °F28.4 °F75 %29.66 in10.0 miSSE (150°)3.5 mph0.02 inClear
2:15 PM35.6 °F26.6 °F70 %29.65 in10.0 miSouth (180°)3.5 mphClear
2:35 PM33.8 °F28.4 °F81 %29.65 in10.0 miSSE (150°)5.8 mphClear
2:55 PM33.8 °F26.6 °F75 %29.65 in10.0 miSSE (150°)5.8 mphClear
3:15 PM33.8 °F28.4 °F81 %29.64 in10.0 miSSE (160°)3.5 mphClear
3:55 PM35.6 °F28.4 °F75 %29.64 in10.0 miSouth (170°)4.6 mphMostly Cloudy
4:15 PM33.8 °F28.4 °F81 %29.65 in10.0 miSSE (160°)4.6 mphMostly Cloudy
4:35 PM33.8 °F28.4 °F81 %29.64 in10.0 miSouth (170°)4.6 mphOvercast
4:55 PM33.8 °F28.4 °F81 %29.64 in10.0 miSSE (160°)6.9 mphOvercast
5:15 PM33.8 °F28.4 °F81 %29.64 in10.0 miSSE (160°)4.6 mphOvercast
5:35 PM33.8 °F28.4 °F81 %29.64 in10.0 miSSE (150°)4.6 mphOvercast
5:55 PM33.8 °F28.4 °F81 %29.64 in10.0 miSSE (150°)3.5 mphOvercast
6:15 PM32.0 °F30.2 °F93 %29.64 in10.0 miSSE (160°)3.5 mphOvercast
6:35 PM33.8 °F30.2 °F87 %29.64 in10.0 miSouth (170°)4.6 mphOvercast
6:55 PM32.0 °F30.2 °F93 %29.64 in4.0 miSSE (150°)3.5 mphSnowLight Snow
7:15 PM32.0 °F32.0 °F100 %29.64 in2.0 miCalmSnowLight Snow
7:35 PM32.0 °F32.0 °F100 %29.64 in2.0 miCalmSnowLight Snow
7:55 PM32.0 °F32.0 °F100 %29.63 in2.0 miESE (110°)4.6 mphSnowLight Snow
8:15 PM32.0 °F32.0 °F100 %29.62 in2.0 miEast (90°)3.5 mphSnowLight Snow
8:35 PM32.0 °F32.0 °F100 %29.61 in1.8 miEast (80°)3.5 mphSnowLight Snow
8:55 PM32.0 °F32.0 °F100 %29.61 in1.5 miENE (70°)3.5 mphSnowLight Snow
9:15 PM32.0 °F32.0 °F100 %29.60 in1.8 miNE (50°)3.5 mphSnowLight Snow
9:35 PM32.0 °F32.0 °F100 %29.60 in1.8 miNE (50°)4.6 mphSnowLight Snow
9:55 PM32.0 °F32.0 °F100 %29.59 in1.8 miNE (40°)4.6 mphSnowLight Snow
10:15 PM32.0 °F32.0 °F100 %29.59 in2.0 miNNE (30°)3.5 mphSnowLight Snow
10:35 PM32.0 °F32.0 °F100 %29.59 in1.5 miNNE (30°)4.6 mphSnowLight Snow
10:55 PM32.0 °F32.0 °F100 %29.59 in1.2 miNNE (20°)3.5 mphSnowLight Snow
11:15 PM32.0 °F32.0 °F100 %29.60 in1.2 miNNE (30°)4.6 mphSnowLight Snow
11:35 PM32.0 °F32.0 °F100 %29.60 in1.0 miCalmSnowLight Snow
11:55 PM32.0 °F32.0 °F100 %29.61 in1.8 miNorth (360°)3.5 mphSnowLight Snow
Hourly data recorded from KOEO, located miles away from Forest Lake, Minnesota







STORIES FROM OUR PARTNERS